Погода Родино

Погода Родино : погода сейчас, прогноз погоды и архив. Всё, что Вы хотите узнать о погоде Родино!

Поиск расширенной информации на нашем сайте:

Полезная информация: Метка стоматология таганрог.

Другие новости

Новости СМИ2

Главная страница сайта

Новости сайта

02.10.2013

Напоминаем, что на нашем новом сайте вы можете получить высокодетализированные прогнозы погоды по пунктам России, СНГ и мира (включающие важные для авиации метеовеличины, такие как направление и скорость ветра, видимость, явления погоды, количество и форма облачности, нижняя и верхняя граница облачности), а также ознакомиться с разнообразными материалами по авиационной метеорологии и подборкой полезных ссылок на эту тему.

Сайт Метеоцентр.Азия посвящён разработке технологий оптимизации авиаметеорологического обслуживания, включая проектирование и перспективное создание нескольких автоматизированных авиаметеорологических систем:
- система выпуска высокодетальных прогностических карт явлений погоды для нижнего воздушного пространства по России и ближнему зарубежью;
- система верификации прогнозов TAF (выпускаемых синоптиками официальных АМСГ РФ и ближнего зарубежья) и AUTOTAF (выпускаемых сайтом Метеоцентр.Азия) - выявление ошибок, онлайн-сопоставление с фактической погодой METAR, автоматическое внесение коррективов в прогнозы при резком отклонении фактической погоды от прогноза, подсчёт оправдываемости прогнозов по элементам и в целом;
- система обработки, анализа и отображения авиаметеорологической информации для применения провайдерами метеорологической информации.

Рекомендуем: бани сауны екатеринбурга

Погода Родино - сегодня

Время (UTC), дата Ветер
(°,м/с) 
Видим.   Явления Облачность Т
(°С)
Тd
(°С)
f(%) Тe
(°С)
Pmin
(гПа)
dP
(гПа)
Po
(мм)
O2
(г/м3)
Тmin Tmax R s Состояние
почвы
18 23.03.17 080 (В) 20000 м    3/0 верхняя 
[Ci sp]
-9.8 -11.8 85 -10  1035.8  -0.9  761  319           
21 23.03.17 060 (СВ) 20000 м    1/0 верхняя 
[Ci sp]
-7.6 -12.8 66 -9  1033.9  -1.6  760  316           
00 24.03.17 130 (ЮВ) 20000 м    1/0 верхняя 
[Ci fib]
-10.7 -14.7 72 -13  1032.6  -1.6  759  319  -11.8      40  неравномерный
мокрый или
старый снег
100% 
03 24.03.17 090 (В) 20000 м    1/0 верхняя 
[Ci sp]
-6.8 -10.8 73 -8  1031.2  -1.1  758  314           
06 24.03.17 110 (В) 20000 м    ясно 
-0.2 -6.6 62 -3  1028.8  -1.8  756  306           
09 24.03.17 160 (Ю) 20000 м    4/0 верхняя 
[Ci fib]
+3.7 -4.5 55 +2  1025.8  -2.7  754  300           
12 24.03.17 080 (В) 20000 м    8/0 средняя, верхняя 
[Ac trans|Ci sp]
+4.3 -4.4 53 +4  1023.1  -2.5  753  299    +5.4       
15 24.03.17 120 (ЮВ) 5{10}  20000 м    9/3 300 м кучево-дожд., верхняя 
[Cb cap|Ci sp]
+0.2 -5.2 67 -3  1020.9  -2.5  751  303           
18 24.03.17 170 (Ю) 9-13{14}  20000 м    9/9 300 м кучево-дожд. 
[Cb cap]
+1.4 -4 67 -3  1018.3  -2.4  749  301           
00 25.03.17 190 (Ю) 6{12}  20000 м  {ливн. осадки}  10/10 480 м кучево-дожд. 
[Cb cap]
+1.5 -0.9 84 -2  1017.5  -0.2  748  300  +0.1    0.5  37  неравномерный
мокрый или
старый снег
100% 
06 25.03.17 200 (Ю) 7-10{11}  20000 м  в посл. час ливневой снег  9/9 300 м кучево-дожд. 
[Cb cap]
+1.3 +0.3 93 -2  1018.7  0.2  749  300           
09 25.03.17 210 (ЮЗ) 5{10}  20000 м    9/9 300 м кучево-дожд. 
[Cb cap]
+1.6 +0.6 93 -1  1019.6  0.8  750  300           
12 25.03.17 250 (З) 20000 м  {ливн. осадки}  10/10 480 м кучево-дожд. 
[Cb cap]
+0.4 -0.2 96 -1  1021.1  1.4  751  302    +1.7     
15 25.03.17 250 (З) 20000 м    10/10 480 м кучево-дожд. 
[Cb cap]
-0.1 -1.7 89 -3  1023.2  752  303           
18 25.03.17 250 (З) 20000 м    9/9 300 м кучево-дожд. 
[Cb cap]
-1.8 -3 91 -4  1024.4  1.1  753  306           
21 25.03.17 230 (ЮЗ) 20000 м    8/6 300 м кучево-дожд., верхняя 
[Cb cap|Ci sp]
-3.9 -4.6 95 -6  1026.4  1.7  754  309           
00 26.03.17 180 (Ю) 1000 м  дымка  10/10 500 м кучево-дожд. 
[Cb cap]
-3.9 -4.2 98 -5  1027.6  1.2  755  309  -4      36  неравномерный
мокрый или
старый снег
100% 
06 26.03.17 180 (Ю) 20000 м  {туман}  9/9 300 м кучево-дожд. 
[Cb cap]
-1.4 -2.1 95 -2  1026.8  -0.9  755  306           
09 26.03.17 070 (В) 20000 м    5/0 верхняя 
[Ci sp]
+0.9 -1.6 83 -1  1023.4  -3.2  753  302           
12 26.03.17 090 (В) 20000 м    6/0 верхняя 
[Ci sp]
+0.5 -1.9 84 -2  1020.2  -3.2  750  302    +1.6       
15 26.03.17 100 (В) 20000 м    9/9 300 м кучево-дожд. 
[Cb cap]
-0.7 -1.9 92 -4  1017.7  -2.5  748  302           
18 26.03.17 110 (В) 5-11  20000 м    10/10 450 м кучево-дожд. 
[Cb cap]
+0.6 -0.7 91 -2  1014  -3.5  746  300           
21 26.03.17 160 (Ю) 20000 м    9/0 кучево-дожд. 
[Cb cap]
+0.9 +0.2 95 -1  1011.8  -2.1  744  299           
00 27.03.17 200 (Ю) 7-10{10}  20000 м  {ливн. осадки}  10/10 480 м кучево-дожд. 
[Cb cap]
+1 +0.1 94 -3  1011.8  744  299  -0.7    34  неравномерный
мокрый или
старый снег
100% 
06 27.03.17 260 (З) 20000 м  в посл. час ливневой снег  10/10 450 м кучево-дожд. 
[Cb cap]
-0.2 -0.7 96 -4  1017.5  3.6  748  302           
Время (UTC), дата Ветер
(°,м/с) 
Видим.   Явления Облачность Т
(°С)
Тd
(°С)
f(%) Тe
(°С)
Pmin
(гПа)
dP
(гПа)
Po
(мм)
O2
(г/м3)
Тmin Tmax R s Состояние
почвы

Для получения пояснительной информации подведите курсор к названию столбца.

ПОГОДА Родино - архив

Всё, что Вы хотите узнать о погоде Родино - удобно и подробно!

Выберите нужную дату (начиная с 1 января 2015* года) и нажмите кнопку "Найти".
Будут отображены архивные сводки погоды по пункту Родино, начиная с указанной даты.


Отображать данные в формате CSV (для использования в таблицах Excel)


Внимание! Наш архив погоды предназначен исключительно для личного некоммерческого использования в познавательных целях. Если Вам необходимы официальные справки о состоянии погоды (для производственных, юридических, коммерческих и т.п. целей), обращайтесь в органы Росгидромета.

*Примечание: данная дата относится к архиву по метеостанциям СССР (Россия, СНГ, Балтия).
Архив по метеостанциям Зарубежной Европы и Азии (кроме Китая) хранится 10 дней, по другим регионам земного шара (Китай, Африка, Америка, Австралия, Океания) - 1 день.

Родино - район местоположения метеостанции


Название, широта, долгота, высота метеостанции:
Родино 52.5°ш. 80.2°д. 59 м над ур. моря [Российская Федерация]

Дополнительная информация

В oтличие oт бoльшинства пoгoдных сайтoв мы публикуем пoдрoбную метеoинфoрмацию в детальнoм прoфессиoнальнoм фoрмате.

Характеристики температуры и влажнoсти вoздуха измеряются на высoте 2 м в тени вдали oт зданий и деревьев.
Скoрoсть ветра измеряется на высoте 10 м (на урoвне рoста челoвека скoрoсть ветра ниже в 1.5-2 раза). Если метеoстанция нахoдится в гoрoде или в лесу, тo скoрoсть ветра занижена на 2-4 м/с пo сравнению с oткрытым местoм. Скoрoсть ветра над акватoриями крупных рек и oзёр, а также на вершинах хoлмoв на 2-5 м/с выше, чем в oбычных услoвиях.
Атмoсфернoе давление в разных тoчках местнoсти мoжет значительнo oтличаться oт давления на метеoстанции, в зависимoсти oт услoвий рельефа (при пoдъёме на 10 м давление пoнижается примернo на 1 мм рт.ст.).